Location: ????
(33.5638°N, 35.3879°E)
Time: 03:40:18
(UTC+00:00)

Daily predictions for brighter satellites

Satellite Brightness Start Highest point End
(mag) Time Altitude Azimuth Time Altitude Azimuth Time Altitude Azimuth
Cosmos 1980 Rocket 3.9 00:23:49 28° NNE 00:23:49 28° NNE 00:26:22 10° NNE
Cosmos 2322 Rocket 4.4 00:26:07 16° ESE 00:27:48 18° E 00:31:30 10° ENE
SL-16 R/B 3.8 00:35:53 27° ESE 00:36:39 28° ESE 00:41:22 10° NE
ARIANE 5 R/B 4.4 00:49:21 10° N 00:51:02 21° N 00:51:02 21° N
IDEFIX/ARIANE 42P 3.8 00:53:07 10° N 00:56:03 34° N 00:56:03 34° N
BREEZE-M DEB (TANK) 4.1 00:57:53 62° WNW 00:58:49 67° NNW 01:18:49 10° ENE
Meteor 1-14 Rocket 4.4 00:55:07 10° N 01:00:16 68° NE 01:00:16 68° NE
Meteor 2-6 Rocket 4.5 01:01:17 63° ESE 01:01:41 66° E 01:07:24 10° NNE
CZ-2C R/B 3.8 01:00:27 10° NNE 01:05:15 38° E 01:08:06 21° SSE
NOSS 3-3 (A) 4.1 01:09:13 55° NNW 01:09:13 55° NNW 01:14:35 10° NNE
NOSS 3-3 (C) 4.1 01:09:23 55° NNW 01:09:23 55° NNW 01:14:39 10° NNE
SL-4 R/B 3.1 01:10:15 49° ENE 01:10:15 49° ENE 01:13:48 10° NE
USA 267 4.4 01:07:17 10° NNE 01:12:34 27° NNW 01:13:06 27° NW
Meteor 1-4 Rocket 4.3 01:25:23 26° NNE 01:25:23 26° NNE 01:27:06 10° NNE
Cosmos 1238 Rocket 3.7 01:17:56 10° N 01:24:22 70° W 01:25:25 58° SW
Cosmos 1727 Rocket 4.3 01:19:17 11° S 01:25:26 69° E 01:31:43 10° NNE
SJ 16-02 2.4 01:21:58 10° N 01:26:10 44° ENE 01:30:21 10° SE
H-2A R/B 2.4 01:24:03 10° SSE 01:28:19 66° ENE 01:32:43 10° N
PAYLOAD A 3.8 01:24:03 10° NNE 01:28:45 77° ESE 01:29:51 52° S
Lacrosse 5 4.3 01:29:27 11° NNW 01:29:27 11° NNW 01:30:20 10° NNW
PSLV R/B 3.6 01:25:17 10° NNE 01:29:28 71° ESE 01:29:48 66° SE
Cosmos 468 Rocket 3.9 01:29:05 61° SSW 01:30:04 88° WNW 01:35:23 10° NNE
Cosmos 1339 Rocket 4.5 01:30:54 53° WSW 01:31:49 58° W 01:37:58 10° N
ADEOS Rocket 4.3 01:25:36 10° SE 01:32:10 45° ENE 01:38:08 10° N
Landsat 5 3.5 01:36:55 10° S 01:41:25 83° WSW 01:45:56 10° NNW
USA 234 3.6 01:37:13 10° ESE 01:43:38 63° NE 01:50:03 10° NW
Meteor 1-11 Rocket 4.4 01:38:00 10° N 01:43:39 57° E 01:49:09 10° SSE
CZ-4B R/B 3.8 01:44:48 10° SE 01:47:19 23° ENE 01:49:53 10° NNE
Meteor 1-27 Rocket 3.8 01:42:49 10° S 01:48:45 84° E 01:54:41 10° N
ALOS 3.7 01:45:03 10° NNE 01:49:22 37° E 01:53:40 10° SSE
ERS-2 2.3 01:50:06 10° SSE 01:53:44 70° ENE 01:57:23 10° N
MSX 4.5 01:49:14 10° N 01:54:19 33° WNW 01:54:55 32° W
Cosmos 2360 Rocket 2.8 01:49:04 10° S 01:54:36 58° ESE 02:00:09 10° NNE
Chandra Rocket (1) 4.2 01:46:28 26° W 01:54:41 47° SSW 02:00:10 10° SE
Cosmos 1484 Rocket 3.4 02:01:09 10° NNE 02:05:05 58° E 02:09:01 10° S
Cosmos 1980 Rocket 4.1 02:05:36 12° NW 02:05:36 12° NW 02:07:39 10° NNW
Cosmos 1898 Rocket 3.7 02:00:53 10° NNW 02:06:10 75° ENE 02:11:26 10° SSE
IRIDIUM 104 4.5 02:03:42 10° NNW 02:08:41 48° W 02:13:40 10° SSW
Cosmos 1536 3.0 02:06:14 10° N 02:10:18 73° E 02:14:21 10° SSE
FENGYUN 3A 3.9 02:05:50 10° NNE 02:11:13 70° ESE 02:16:36 10° S
Cosmos 2322 Rocket 2.4 02:08:00 23° SW 02:11:21 50° WNW 02:16:53 10° N
X-37B 3.2 02:09:57 10° NNW 02:12:00 16° NNE 02:14:02 10° NE
Cosmos 2208 Rocket 4.1 02:09:02 10° SSW 02:14:18 83° ESE 02:19:32 10° NNE
ATLAS CENTAUR Rocket 3.2 02:04:43 21° W 02:14:20 62° S 02:18:51 10° ESE
Cosmos 1437 Rocket 4.0 02:10:52 10° SSE 02:14:24 42° E 02:18:01 10° NNE
Meteor 1-31 Rocket 3.2 02:12:42 10° NNE 02:16:31 64° E 02:20:19 10° S
deb Chang Zheng 4 3.4 02:12:49 10° N 02:17:05 72° WNW 02:21:18 10° SSW
Cosmos 2263 Rocket 2.2 02:12:22 10° NNW 02:17:54 56° WSW 02:23:24 10° S
SL-16 R/B 2.9 02:17:49 22° WSW 02:20:33 33° WNW 02:25:39 10° N
Cosmos 2237 4.2 02:15:49 10° SSW 02:21:30 73° WNW 02:27:13 10° NNE
Cosmos 2173 Rocket 4.1 02:15:57 10° N 02:22:18 85° E 02:28:41 10° S
Cosmos 1707 Rocket 4.2 02:20:29 19° SW 02:22:56 33° W 02:26:52 10° NNW
USA 32 4.1 02:18:22 10° NNW 02:23:30 56° W 02:28:36 10° SSW
Cosmos 1937 Rocket 3.4 02:26:58 10° NNW 02:32:07 87° WSW 02:37:15 10° SSE
Cosmos 1814 Rocket 4.0 02:28:10 10° SSW 02:33:18 65° WNW 02:38:31 10° N
ADEOS 3.7 02:28:17 10° N 02:33:19 52° WNW 02:38:21 10° SSW
Cosmos 841 Rocket 3.7 02:30:12 10° SW 02:35:11 47° WNW 02:40:16 10° N
Cosmos 1666 3.4 02:33:25 10° NNW 02:36:45 30° W 02:40:03 10° SSW
Cosmos 2061 Rocket 4.3 02:34:42 10° N 02:41:10 79° E 02:47:34 10° S
Cosmos 44 Rocket 3.8 02:37:49 11° SW 02:41:57 39° WNW 02:46:27 10° NNE
SAR-Lupe-4 3.5 02:39:24 10° S 02:42:55 59° WSW 02:46:29 10° NNW
CZ-2C R/B 3.8 02:39:19 10° NNW 02:43:10 22° WNW 02:47:02 10° WSW
Cosmos 2219 Rocket 3.1 02:39:43 10° S 02:45:11 53° ESE 02:50:42 10° NNE
Cosmos 1733 Rocket 3.1 02:42:30 10° NNW 02:46:44 53° W 02:50:55 10° S
SL-4 R/B 3.9 02:45:52 10° WNW 02:49:18 21° NNW 02:52:55 10° NNE
COSMOS 2428 3.7 02:44:54 10° S 02:50:23 51° ESE 02:55:54 10° NNE
Meteor 2-20 Rocket 4.4 02:44:52 10° S 02:51:00 76° W 02:57:09 10° N
Cosmos 2016 Rocket 3.9 02:46:49 10° N 02:52:56 82° W 02:59:01 10° S
SAR-Lupe-1 4.4 02:51:45 10° S 02:55:07 40° W 02:58:30 10° NNW
NOSS 3-4 (A) 4.3 02:49:25 10° NNW 02:56:43 75° ENE 03:04:41 10° SE
NOSS 3-4 (C) 4.3 02:49:31 10° NNW 02:56:49 74° ENE 03:04:48 10° SE
Cosmos 1862 Rocket 4.4 02:53:14 10° SW 02:57:05 30° WNW 03:00:57 10° NNW
Cosmos 2333 Rocket 2.4 02:54:30 10° SSW 03:00:15 82° ESE 03:06:03 10° NNE
Meteor 1-18 Rocket 4.2 02:57:44 10° SSW 03:03:16 76° W 03:08:50 10° N
SJ 16-02 3.1 03:02:35 10° WNW 03:04:15 12° W 03:05:56 10° WSW
SJ-12 4.1 03:00:20 10° N 03:04:21 51° WNW 03:08:20 10° SSW
